Regional Weather Roundup
Issued by NWS

Home | Current Version | Previous Version | Graphics & Text | Print | Product List | Glossary On
Versions: 1 2 3 4 5 6 7 8 9 10 11 12 13 14 15 16 17 18 19 20 21 22 23 24 25 26 27 28 29 30 31 32 33 34 35 36 37 38 39 40 41 42 43 44 45 46 47 48 49 50
197
ASUS43 KFSD 062010
RWRSD

WEATHER ROUNDUP FOR SOUTH DAKOTA
NATIONAL WEATHER SERVICE SIOUX FALLS SD
200 PM CST SAT FEB 06 2016

NOTE: "FAIR" INDICATES FEW OR NO CLOUDS BELOW 12,000 FEET WITH NO
SIGNIFICANT WEATHER AND/OR OBSTRUCTIONS TO VISIBILITY.


SDZ001>005-009-010-012>017-062100-
NORTHWEST AND NORTH CENTRAL SOUTH DAKOTA

CITY           SKY/WX    TMP DP  RH WIND       PRES   REMARKS
BUFFALO          N/A     55  22  27 W26G33    29.74F
FAITH            N/A     46  26  45 SW9       29.82F
MOBRIDGE       CLOUDY    51  28  41 SW9       29.74F
$$

SDZ012>016-024>037-041>051-057-063-072>074-062100-
SOUTHWEST AND SOUTH CENTRAL SOUTH DAKOTA

CITY           SKY/WX    TMP DP  RH WIND       PRES   REMARKS
RAPID CTY ARPT CLOUDY    49  29  46 SW3       29.87F
PIERRE         CLOUDY    46  27  47 SW14      29.82F
CUSTER         CLOUDY    37  19  48 W13G28    29.93F
ELLSWORTH AFB  CLOUDY    50  29  45 SW3       29.86F
PHILIP         CLOUDY    46  29  51 SW16      29.86F
PINE RIDGE     CLOUDY    43  24  47 W13       29.96F
SPEARFISH      FAIR      54  19  26 W14G20    29.86F
WINNER         FAIR      44  28  53 SW15G22   29.90F
$$

SDZ004>011-016>023-039-040-062100-
NORTHEAST SOUTH DAKOTA

CITY           SKY/WX    TMP DP  RH WIND       PRES   REMARKS
ABERDEEN       CLOUDY    41  30  65 S12       29.80F
WATERTOWN      CLOUDY    35  26  69 SW18      29.83F WCI  24
BROOKINGS      CLOUDY    36  27  69 S15       29.87F
SISSETON         N/A     39  28  64 W24G32    29.75F
$$

SDZ017-020-022-023-036>040-048>070-062100-
SOUTHEAST SOUTH DAKOTA

CITY           SKY/WX    TMP DP  RH WIND       PRES   REMARKS
SIOUX FALLS    PTSUNNY   34  23  64 S13       29.95F WCI  25
HURON          CLOUDY    39  29  67 S13       29.87F
CHAMBERLAIN    CLOUDY    43  32  64 SW10      29.88F
MITCHELL       CLOUDY    40  30  67 S13       29.92F
YANKTON        CLOUDY    37  21  52 SW13      29.98F
$$

ABBREVIATIONS USED IN REMARKS
   TC - TEMPERATURE IN CELSIUS
  WCI - WIND CHILL INDEX
   HX - HEAT INDEX
  VSB - VISIBILITY





USA.gov is the U.S. government's official web portal to all federal, state and local government web resources and services.